Time,TemperatureF,DewpointF,PressureIn,WindDirection,WindDirectionDegrees,WindSpeedMPH,WindSpeedGustMPH,Humidity,HourlyPrecipIn,Conditions,Clouds,dailyrainin,SoftwareType,DateUTC
2013-03-11 00:02:00,53.2,49.7,29.63,SE,138,4.0,5.8,88,0.00,RA,,0.00,WeatherDisplay:10.37,2013-03-11 05:02:00,
2013-03-11 00:07:00,53.2,49.4,29.63,South,175,7.9,10.4,87,0.00,RA,,0.00,WeatherDisplay:10.37,2013-03-11 05:07:00,
2013-03-11 00:12:00,53.2,49.4,29.62,SW,224,3.1,4.6,87,0.00,OVC,,0.00,WeatherDisplay:10.37,2013-03-11 05:12:00,
2013-03-11 00:17:00,53.1,49.3,29.63,SSW,205,4.2,13.5,87,0.00,OVC,,0.00,WeatherDisplay:10.37,2013-03-11 05:17:00,
2013-03-11 00:22:00,53.1,49.3,29.63,SSE,161,8.4,10.4,87,0.00,OVC,,0.00,WeatherDisplay:10.37,2013-03-11 05:22:00,
2013-03-11 00:27:00,52.9,49.1,29.63,South,173,2.8,3.5,87,0.00,OVC,,0.00,WeatherDisplay:10.37,2013-03-11 05:27:00,
2013-03-11 00:32:00,52.9,49.1,29.63,South,188,4.4,4.6,87,0.00,OVC,,0.00,WeatherDisplay:10.37,2013-03-11 05:32:00,
2013-03-11 00:37:00,52.8,49.0,29.63,SSE,157,11.2,11.2,87,0.00,OVC,,0.00,WeatherDisplay:10.37,2013-03-11 05:37:00,
2013-03-11 00:43:00,52.8,49.0,29.63,South,180,7.5,8.1,87,0.00,OVC,,0.00,WeatherDisplay:10.37,2013-03-11 05:43:00,
2013-03-11 00:48:00,52.6,48.8,29.63,SSE,167,4.7,4.7,87,0.00,OVC,,0.00,WeatherDisplay:10.37,2013-03-11 05:48:00,
2013-03-11 00:53:00,52.6,48.8,29.63,South,171,3.3,5.8,87,0.00,OVC,,0.00,WeatherDisplay:10.37,2013-03-11 05:53:00,
2013-03-11 00:58:00,52.5,48.7,29.63,SSE,147,4.6,6.0,87,0.00,OVC,,0.00,WeatherDisplay:10.37,2013-03-11 05:58:00,
2013-03-11 01:03:00,52.3,48.5,29.63,SW,217,2.6,4.5,87,0.00,OVC,,0.00,WeatherDisplay:10.37,2013-03-11 06:03:00,
2013-03-11 01:08:00,52.2,48.1,29.63,SSE,159,5.0,5.8,86,0.00,OVC,,0.00,WeatherDisplay:10.37,2013-03-11 06:08:00,
2013-03-11 01:13:00,52.0,47.9,29.63,SSE,165,3.0,4.5,86,0.00,OVC,,0.00,WeatherDisplay:10.37,2013-03-11 06:13:00,
2013-03-11 01:18:00,52.0,48.3,29.63,SSE,147,1.4,1.4,87,0.00,OVC,,0.00,WeatherDisplay:10.37,2013-03-11 06:18:00,
2013-03-11 01:23:00,51.9,47.8,29.63,SE,138,4.1,5.8,86,0.00,OVC,,0.00,WeatherDisplay:10.37,2013-03-11 06:23:00,
2013-03-11 01:28:00,51.7,47.6,29.63,WSW,248,3.8,4.5,86,0.00,OVC,,0.00,WeatherDisplay:10.37,2013-03-11 06:28:00,
2013-03-11 01:33:00,51.6,47.5,29.63,SE,145,2.0,3.5,86,0.00,OVC,,0.00,WeatherDisplay:10.37,2013-03-11 06:33:00,
2013-03-11 01:38:00,51.4,47.7,29.63,South,174,5.3,6.0,87,0.00,OVC,,0.00,WeatherDisplay:10.37,2013-03-11 06:38:00,
2013-03-11 01:43:00,51.4,47.7,29.63,South,173,2.0,3.0,87,0.00,OVC,,0.00,WeatherDisplay:10.37,2013-03-11 06:43:00,
2013-03-11 01:48:00,51.3,47.6,29.62,South,173,0.6,1.1,87,0.00,OVC,,0.00,WeatherDisplay:10.37,2013-03-11 06:48:00,
2013-03-11 01:53:00,51.3,47.6,29.62,South,184,1.2,1.2,87,0.00,OVC,,0.00,WeatherDisplay:10.37,2013-03-11 06:53:00,
2013-03-11 01:58:00,51.1,47.4,29.62,South,182,0.7,1.1,87,0.00,OVC,,0.00,WeatherDisplay:10.37,2013-03-11 06:58:00,
2013-03-11 02:03:00,51.1,47.4,29.62,South,172,2.4,3.5,87,0.00,OVC,,0.00,WeatherDisplay:10.37,2013-03-11 07:03:00,
2013-03-11 02:08:00,51.1,47.7,29.62,SE,146,2.1,3.0,88,0.00,OVC,,0.00,WeatherDisplay:10.37,2013-03-11 07:08:00,
2013-03-11 02:13:00,51.0,47.3,29.62,SSE,167,5.5,9.2,87,0.00,OVC,,0.00,WeatherDisplay:10.37,2013-03-11 07:13:00,
2013-03-11 02:18:00,50.8,47.1,29.62,SSE,154,1.9,4.5,87,0.00,OVC,,0.00,WeatherDisplay:10.37,2013-03-11 07:18:00,
2013-03-11 02:23:00,50.8,47.1,29.62,SE,126,4.3,5.8,87,0.00,OVC,,0.00,WeatherDisplay:10.37,2013-03-11 07:23:00,
2013-03-11 02:28:00,50.7,47.0,29.62,SE,143,5.9,5.9,87,0.00,OVC,,0.00,WeatherDisplay:10.37,2013-03-11 07:28:00,
2013-03-11 02:33:00,50.7,47.0,29.62,South,188,0.9,3.0,87,0.00,OVC,,0.00,WeatherDisplay:10.37,2013-03-11 07:33:00,
2013-03-11 02:38:00,50.5,46.8,29.61,SSE,150,5.4,8.1,87,0.00,OVC,,0.00,WeatherDisplay:10.37,2013-03-11 07:38:00,
2013-03-11 02:43:00,50.5,46.8,29.61,ESE,119,4.4,4.6,87,0.00,OVC,,0.00,WeatherDisplay:10.37,2013-03-11 07:43:00,
2013-03-11 02:48:00,50.4,46.7,29.60,South,170,3.7,3.7,87,0.00,OVC,,0.00,WeatherDisplay:10.37,2013-03-11 07:48:00,
2013-03-11 02:53:00,50.4,46.7,29.60,South,170,0.8,6.0,87,0.00,OVC,,0.00,WeatherDisplay:10.37,2013-03-11 07:53:00,
2013-03-11 02:58:00,50.4,46.7,29.60,SSE,158,6.7,6.7,87,0.00,OVC,,0.00,WeatherDisplay:10.37,2013-03-11 07:58:00,
2013-03-11 03:03:00,50.4,46.7,29.60,SE,146,4.7,5.8,87,0.00,OVC,,0.00,WeatherDisplay:10.37,2013-03-11 08:03:00,
2013-03-11 03:08:00,50.2,46.5,29.60,SE,146,1.5,3.5,87,0.00,OVC,,0.00,WeatherDisplay:10.37,2013-03-11 08:08:00,
2013-03-11 03:13:00,50.2,46.5,29.60,SSE,168,6.2,8.1,87,0.00,OVC,,0.00,WeatherDisplay:10.37,2013-03-11 08:13:00,
2013-03-11 03:18:00,50.2,46.5,29.60,SSE,161,5.8,5.8,87,0.00,OVC,,0.00,WeatherDisplay:10.37,2013-03-11 08:18:00,
2013-03-11 03:23:00,50.2,46.5,29.60,SE,146,3.3,4.6,87,0.00,OVC,,0.00,WeatherDisplay:10.37,2013-03-11 08:23:00,
2013-03-11 03:28:00,50.1,46.4,29.60,South,178,1.4,3.5,87,0.00,OVC,,0.00,WeatherDisplay:10.37,2013-03-11 08:28:00,
2013-03-11 03:33:00,50.1,46.4,29.60,SSE,167,4.0,6.0,87,0.00,OVC,,0.00,WeatherDisplay:10.37,2013-03-11 08:33:00,
2013-03-11 03:38:00,50.1,46.4,29.59,SW,216,0.3,1.1,87,0.00,OVC,,0.00,WeatherDisplay:10.37,2013-03-11 08:38:00,
2013-03-11 03:43:00,49.9,46.2,29.59,SE,138,4.2,5.8,87,0.00,OVC,,0.00,WeatherDisplay:10.37,2013-03-11 08:43:00,
2013-03-11 03:48:00,49.9,46.2,29.58,SE,138,2.0,3.5,87,0.00,OVC,,0.00,WeatherDisplay:10.37,2013-03-11 08:48:00,
2013-03-11 03:53:00,49.8,46.1,29.58,SW,234,0.6,1.1,87,0.00,OVC,,0.00,WeatherDisplay:10.37,2013-03-11 08:53:00,
2013-03-11 03:58:00,49.8,46.4,29.58,West,277,2.7,4.6,88,0.00,OVC,,0.00,WeatherDisplay:10.37,2013-03-11 08:58:00,
2013-03-11 04:03:00,49.6,46.2,29.58,South,169,6.0,9.2,88,0.00,OVC,,0.00,WeatherDisplay:10.37,2013-03-11 09:03:00,
2013-03-11 04:08:00,49.6,46.2,29.58,SSE,167,4.5,5.8,88,0.00,OVC,,0.00,WeatherDisplay:10.37,2013-03-11 09:08:00,
2013-03-11 04:13:00,49.6,46.2,29.57,SSE,164,1.4,3.5,88,0.00,-RA,,0.00,WeatherDisplay:10.37,2013-03-11 09:13:00,
2013-03-11 04:18:00,49.5,46.1,29.57,SE,140,3.8,5.8,88,0.00,-RA,,0.00,WeatherDisplay:10.37,2013-03-11 09:18:00,
2013-03-11 04:23:00,49.4,46.0,29.58,SE,125,0.8,1.5,88,0.00,-RA,,0.00,WeatherDisplay:10.37,2013-03-11 09:23:00,
2013-03-11 04:28:00,49.4,46.0,29.58,South,175,5.4,5.8,88,0.00,-RA,,0.00,WeatherDisplay:10.37,2013-03-11 09:28:00,
2013-03-11 04:34:00,49.2,46.1,29.58,ESE,123,3.1,10.5,89,0.00,OVC,,0.00,WeatherDisplay:10.37,2013-03-11 09:34:00,
2013-03-11 04:39:00,49.2,46.1,29.58,SE,138,0.5,3.5,89,0.00,OVC,,0.00,WeatherDisplay:10.37,2013-03-11 09:39:00,
2013-03-11 04:44:00,49.2,46.1,29.57,SSE,168,0.3,1.5,89,0.00,OVC,,0.00,WeatherDisplay:10.37,2013-03-11 09:44:00,
2013-03-11 04:49:00,49.1,46.0,29.56,South,182,1.3,1.5,89,0.00,OVC,,0.00,WeatherDisplay:10.37,2013-03-11 09:49:00,
2013-03-11 04:54:00,48.9,45.8,29.56,ESE,116,3.1,5.8,89,0.00,OVC,,0.00,WeatherDisplay:10.37,2013-03-11 09:54:00,
2013-03-11 04:59:00,48.9,45.8,29.56,SE,137,0.5,1.5,89,0.00,OVC,,0.00,WeatherDisplay:10.37,2013-03-11 09:59:00,
2013-03-11 05:04:00,48.8,45.7,29.56,SE,136,0.0,1.1,89,0.00,OVC,,0.00,WeatherDisplay:10.37,2013-03-11 10:04:00,
2013-03-11 05:09:00,48.8,45.7,29.57,SSE,153,0.4,1.5,89,0.00,OVC,,0.00,WeatherDisplay:10.37,2013-03-11 10:09:00,
2013-03-11 05:14:00,48.6,45.8,29.58,SSE,153,0.6,3.5,90,0.00,OVC,,0.00,WeatherDisplay:10.37,2013-03-11 10:14:00,
2013-03-11 05:19:00,48.6,45.8,29.58,West,261,1.4,3.5,90,0.01,RA,,0.01,WeatherDisplay:10.37,2013-03-11 10:19:00,
2013-03-11 05:24:00,48.5,45.7,29.59,West,265,0.8,1.1,90,0.01,RA,,0.01,WeatherDisplay:10.37,2013-03-11 10:24:00,
2013-03-11 05:29:00,48.2,45.4,29.60,SSW,195,1.3,3.5,90,0.01,OVC,,0.01,WeatherDisplay:10.37,2013-03-11 10:29:00,
2013-03-11 05:34:00,48.0,45.2,29.60,SSW,192,1.3,1.5,90,0.01,-RA,,0.01,WeatherDisplay:10.37,2013-03-11 10:34:00,
2013-03-11 05:39:00,47.9,45.1,29.60,West,260,5.1,9.2,90,0.01,-RA,,0.01,WeatherDisplay:10.37,2013-03-11 10:39:00,
2013-03-11 05:44:00,47.7,44.9,29.60,SSE,156,0.9,1.5,90,0.01,-RA,,0.01,WeatherDisplay:10.37,2013-03-11 10:44:00,
2013-03-11 05:49:00,47.0,44.2,29.60,West,273,4.5,9.2,90,0.01,-RA,,0.01,WeatherDisplay:10.37,2013-03-11 10:49:00,
2013-03-11 05:54:00,46.2,43.4,29.60,WSW,242,2.4,6.0,90,0.01,OVC,,0.01,WeatherDisplay:10.37,2013-03-11 10:54:00,
2013-03-11 05:59:00,46.0,43.2,29.60,West,275,2.8,4.6,90,0.02,RA,,0.02,WeatherDisplay:10.37,2013-03-11 10:59:00,
2013-03-11 06:04:00,45.7,42.9,29.61,West,273,2.4,3.0,90,0.02,RA,,0.02,WeatherDisplay:10.37,2013-03-11 11:04:00,
2013-03-11 06:09:00,45.4,42.6,29.61,WSW,244,2.0,6.0,90,0.02,OVC,,0.02,WeatherDisplay:10.37,2013-03-11 11:09:00,
2013-03-11 06:14:00,45.1,42.3,29.61,West,262,4.2,8.1,90,0.02,OVC,,0.02,WeatherDisplay:10.37,2013-03-11 11:14:00,
2013-03-11 06:19:00,44.9,42.4,29.61,SSE,164,0.9,4.6,91,0.01,OVC,,0.02,WeatherDisplay:10.37,2013-03-11 11:19:00,
2013-03-11 06:24:00,44.6,42.1,29.61,SSW,206,0.9,4.6,91,0.01,OVC,,0.02,WeatherDisplay:10.37,2013-03-11 11:24:00,
2013-03-11 06:29:00,44.6,42.1,29.61,SSW,205,0.5,1.5,91,0.01,OVC,,0.02,WeatherDisplay:10.37,2013-03-11 11:29:00,
2013-03-11 06:34:00,44.5,42.0,29.61,WNW,282,0.0,1.1,91,0.01,OVC,,0.02,WeatherDisplay:10.37,2013-03-11 11:34:00,
2013-03-11 06:39:00,44.5,42.0,29.61,SW,227,2.2,5.8,91,0.01,OVC,,0.02,WeatherDisplay:10.37,2013-03-11 11:39:00,
2013-03-11 06:44:00,44.3,41.8,29.61,SW,217,0.5,1.5,91,0.01,OVC,,0.02,WeatherDisplay:10.37,2013-03-11 11:44:00,
2013-03-11 06:49:00,44.3,41.8,29.60,WNW,296,0.1,3.5,91,0.01,OVC,,0.02,WeatherDisplay:10.37,2013-03-11 11:49:00,
2013-03-11 06:54:00,44.2,42.0,29.59,WNW,296,0.1,1.5,92,0.01,OVC,,0.02,WeatherDisplay:10.37,2013-03-11 11:54:00,
2013-03-11 06:59:00,44.2,42.0,29.60,SSW,213,1.6,4.6,92,0.00,OVC,,0.02,WeatherDisplay:10.37,2013-03-11 11:59:00,
2013-03-11 07:04:00,44.1,41.9,29.60,WSW,258,1.3,5.8,92,0.00,OVC,,0.02,WeatherDisplay:10.37,2013-03-11 12:04:00,
2013-03-11 07:09:00,44.1,41.9,29.60,West,281,2.1,5.8,92,0.01,RA,,0.03,WeatherDisplay:10.37,2013-03-11 12:09:00,
2013-03-11 07:14:00,44.1,41.9,29.60,West,281,0.3,1.5,92,0.01,RA,,0.03,WeatherDisplay:10.37,2013-03-11 12:14:00,
2013-03-11 07:19:00,43.9,41.7,29.59,SW,232,3.1,3.5,92,0.01,OVC,,0.03,WeatherDisplay:10.37,2013-03-11 12:19:00,
2013-03-11 07:24:00,43.8,41.6,29.60,WSW,248,5.2,8.1,92,0.01,OVC,,0.03,WeatherDisplay:10.37,2013-03-11 12:24:00,
2013-03-11 07:29:00,43.8,41.6,29.60,NW,306,1.7,5.8,92,0.02,RA,,0.04,WeatherDisplay:10.37,2013-03-11 12:29:00,
2013-03-11 07:34:00,43.6,41.4,29.60,WSW,240,8.7,9.0,92,0.02,-RA,,0.04,WeatherDisplay:10.37,2013-03-11 12:34:00,
2013-03-11 07:39:00,43.3,41.1,29.59,West,259,5.8,5.8,92,0.02,-RA,,0.04,WeatherDisplay:10.37,2013-03-11 12:39:00,
2013-03-11 07:44:00,42.9,40.7,29.60,SW,219,1.0,8.1,92,0.02,-RA,,0.04,WeatherDisplay:10.37,2013-03-11 12:44:00,
2013-03-11 07:49:00,42.6,40.4,29.61,SW,232,7.8,9.2,92,0.02,-RA,,0.04,WeatherDisplay:10.37,2013-03-11 12:49:00,
2013-03-11 07:54:00,42.5,40.3,29.61,NW,309,7.0,10.4,92,0.02,OVC,,0.04,WeatherDisplay:10.37,2013-03-11 12:54:00,
2013-03-11 07:59:00,42.3,40.1,29.61,WNW,289,3.2,13.8,92,0.03,RA,,0.05,WeatherDisplay:10.37,2013-03-11 12:59:00,
2013-03-11 08:04:00,42.2,40.0,29.61,SW,228,2.3,8.1,92,0.03,RA,,0.05,WeatherDisplay:10.37,2013-03-11 13:04:00,
2013-03-11 08:09:00,42.2,40.0,29.61,SSE,149,5.5,8.1,92,0.02,OVC,,0.05,WeatherDisplay:10.37,2013-03-11 13:09:00,
2013-03-11 08:14:00,42.1,39.9,29.61,West,265,3.8,5.8,92,0.02,-RA,,0.05,WeatherDisplay:10.37,2013-03-11 13:14:00,
2013-03-11 08:19:00,42.1,39.9,29.61,West,281,4.3,4.6,92,0.02,-RA,,0.05,WeatherDisplay:10.37,2013-03-11 13:19:00,
2013-03-11 08:24:00,41.8,39.6,29.61,West,277,0.3,3.5,92,0.02,-RA,,0.05,WeatherDisplay:10.37,2013-03-11 13:24:00,
2013-03-11 08:29:00,41.6,39.4,29.61,NNW,340,3.7,4.6,92,0.01,-RA,,0.05,WeatherDisplay:10.37,2013-03-11 13:29:00,
2013-03-11 08:34:00,41.3,39.2,29.62,SW,232,1.3,5.8,92,0.01,-DZ,,0.05,WeatherDisplay:10.37,2013-03-11 13:34:00,
2013-03-11 08:39:00,41.2,39.1,29.62,WNW,300,5.0,5.8,92,0.01,-DZ,,0.05,WeatherDisplay:10.37,2013-03-11 13:39:00,
2013-03-11 08:44:00,40.8,38.7,29.62,WNW,300,7.0,8.1,92,0.01,-DZ,,0.05,WeatherDisplay:10.37,2013-03-11 13:44:00,
2013-03-11 08:49:00,40.6,38.5,29.61,WSW,239,0.0,0.0,92,0.01,-DZ,,0.05,WeatherDisplay:10.37,2013-03-11 13:49:00,
2013-03-11 08:54:00,40.5,38.4,29.62,NW,315,3.1,4.6,92,0.01,-RA,,0.05,WeatherDisplay:10.37,2013-03-11 13:54:00,
2013-03-11 08:59:00,40.3,38.2,29.61,SSE,166,0.6,3.0,92,0.00,-RA,,0.05,WeatherDisplay:10.37,2013-03-11 13:59:00,
2013-03-11 09:04:00,40.2,37.8,29.61,SSW,205,2.9,11.5,91,0.00,-RA,,0.05,WeatherDisplay:10.37,2013-03-11 14:04:00,
2013-03-11 09:09:00,40.1,37.7,29.61,WNW,297,1.4,3.5,91,0.00,-RA,,0.05,WeatherDisplay:10.37,2013-03-11 14:09:00,
2013-03-11 09:14:00,39.9,37.5,29.61,WNW,297,1.2,3.5,91,0.00,-DZ,,0.05,WeatherDisplay:10.37,2013-03-11 14:14:00,
2013-03-11 09:19:00,39.9,37.5,29.61,West,280,0.2,1.1,91,0.00,-DZ,,0.05,WeatherDisplay:10.37,2013-03-11 14:19:00,
2013-03-11 09:24:00,39.9,37.5,29.61,WSW,238,3.2,3.5,91,0.00,-DZ,,0.05,WeatherDisplay:10.37,2013-03-11 14:24:00,
2013-03-11 09:29:00,39.9,37.5,29.61,WNW,286,0.0,0.0,91,0.00,-DZ,,0.05,WeatherDisplay:10.37,2013-03-11 14:29:00,
2013-03-11 09:34:00,39.9,37.5,29.61,West,276,3.0,8.0,91,0.00,OVC,,0.05,WeatherDisplay:10.37,2013-03-11 14:34:00,
2013-03-11 09:39:00,39.6,37.2,29.60,WSW,251,1.0,11.0,91,0.00,OVC,,0.05,WeatherDisplay:10.37,2013-03-11 14:39:00,
2013-03-11 09:44:00,39.6,37.2,29.60,WSW,245,1.0,12.0,91,0.00,OVC,,0.05,WeatherDisplay:10.37,2013-03-11 14:44:00,
2013-03-11 09:49:00,39.6,37.2,29.60,WSW,240,3.0,6.0,91,0.00,OVC,,0.05,WeatherDisplay:10.37,2013-03-11 14:49:00,
2013-03-11 09:54:00,39.5,37.1,29.61,SW,225,4.9,8.1,91,0.00,OVC,,0.05,WeatherDisplay:10.37,2013-03-11 14:54:00,
2013-03-11 09:59:00,39.6,37.2,29.61,West,264,0.4,1.1,91,0.00,OVC,,0.05,WeatherDisplay:10.37,2013-03-11 14:59:00,
2013-03-11 10:04:00,39.6,37.2,29.61,WSW,252,3.0,5.0,91,0.00,OVC,,0.05,WeatherDisplay:10.37,2013-03-11 15:04:00,
2013-03-11 10:09:00,39.6,37.2,29.61,WSW,239,3.0,5.0,91,0.00,OVC,,0.05,WeatherDisplay:10.37,2013-03-11 15:09:00,
2013-03-11 10:14:00,39.6,37.1,29.62,WSW,251,9.0,11.0,91,0.00,OVC,,0.05,WeatherDisplay:10.37,2013-03-11 15:14:00,
2013-03-11 10:19:00,39.3,36.6,29.63,WSW,255,6.0,14.0,90,0.00,OVC,,0.05,WeatherDisplay:10.37,2013-03-11 15:19:00,
2013-03-11 10:24:00,39.3,36.6,29.63,WSW,252,9.0,18.0,90,0.00,OVC,,0.05,WeatherDisplay:10.37,2013-03-11 15:24:00,
2013-03-11 10:29:00,39.2,36.5,29.63,SW,232,13.1,15.0,90,0.00,OVC,,0.05,WeatherDisplay:10.37,2013-03-11 15:29:00,
2013-03-11 10:34:00,38.9,36.2,29.63,SW,214,1.0,15.0,90,0.00,OVC,,0.05,WeatherDisplay:10.37,2013-03-11 15:34:00,
2013-03-11 10:39:00,38.6,35.9,29.63,WSW,257,6.9,13.8,90,0.00,OVC,,0.05,WeatherDisplay:10.37,2013-03-11 15:39:00,
2013-03-11 10:44:00,38.6,35.9,29.63,SW,235,3.0,6.0,90,0.00,OVC,,0.05,WeatherDisplay:10.37,2013-03-11 15:44:00,
2013-03-11 10:49:00,38.3,35.6,29.63,SW,225,7.5,10.4,90,0.00,OVC,,0.05,WeatherDisplay:10.37,2013-03-11 15:49:00,
2013-03-11 10:54:00,38.5,35.8,29.63,West,266,4.6,8.1,90,0.00,-RA,,0.05,WeatherDisplay:10.37,2013-03-11 15:54:00,
2013-03-11 10:59:00,38.3,35.3,29.63,SSW,198,6.0,15.0,89,0.00,-RA,,0.05,WeatherDisplay:10.37,2013-03-11 15:59:00,
2013-03-11 11:04:00,38.5,35.5,29.63,West,279,8.5,10.4,89,0.00,-RA,,0.05,WeatherDisplay:10.37,2013-03-11 16:04:00,
2013-03-11 11:09:00,38.5,35.3,29.63,SW,234,9.0,20.0,88,0.00,-RA,,0.05,WeatherDisplay:10.37,2013-03-11 16:09:00,
2013-03-11 11:14:00,38.3,34.8,29.63,SW,223,3.0,18.0,87,0.00,-RA,,0.05,WeatherDisplay:10.37,2013-03-11 16:14:00,
2013-03-11 11:19:00,38.5,35.3,29.63,SW,225,0.2,1.1,88,0.00,-RA,,0.05,WeatherDisplay:10.37,2013-03-11 16:19:00,
2013-03-11 11:24:00,38.3,34.8,29.63,SSW,201,5.5,10.4,87,0.00,-RA,,0.05,WeatherDisplay:10.37,2013-03-11 16:24:00,
2013-03-11 11:29:00,38.2,34.7,29.62,South,183,5.3,7.5,87,0.00,-RA,,0.05,WeatherDisplay:10.37,2013-03-11 16:29:00,
2013-03-11 11:34:00,38.2,35.0,29.62,SSW,210,5.0,8.0,88,0.00,OVC,,0.05,WeatherDisplay:10.37,2013-03-11 16:34:00,
2013-03-11 11:39:00,38.2,35.0,29.63,SW,236,5.0,11.0,88,0.00,OVC,,0.05,WeatherDisplay:10.37,2013-03-11 16:39:00,
2013-03-11 11:44:00,37.9,34.3,29.62,SW,233,10.0,14.0,87,0.00,OVC,,0.05,WeatherDisplay:10.37,2013-03-11 16:44:00,
2013-03-11 11:49:00,37.4,33.9,29.63,WSW,238,12.0,17.0,87,0.00,OVC,,0.05,WeatherDisplay:10.37,2013-03-11 16:49:00,
2013-03-11 11:54:00,37.3,33.8,29.63,WSW,239,2.9,4.6,87,0.00,OVC,,0.05,WeatherDisplay:10.37,2013-03-11 16:54:00,
2013-03-11 11:59:00,37.2,33.7,29.63,WSW,241,6.0,20.0,87,0.00,OVC,,0.05,WeatherDisplay:10.37,2013-03-11 16:59:00,
2013-03-11 12:04:00,37.2,33.7,29.63,WSW,242,6.0,18.0,87,0.00,OVC,,0.05,WeatherDisplay:10.37,2013-03-11 17:04:00,
2013-03-11 12:09:00,37.2,33.7,29.63,WSW,244,7.0,12.0,87,0.00,OVC,,0.05,WeatherDisplay:10.37,2013-03-11 17:09:00,
2013-03-11 12:14:00,37.4,33.9,29.63,WSW,242,5.0,8.0,87,0.00,OVC,,0.05,WeatherDisplay:10.37,2013-03-11 17:14:00,
2013-03-11 12:19:00,37.2,33.7,29.63,SSE,150,5.1,13.8,87,0.00,OVC,,0.05,WeatherDisplay:10.37,2013-03-11 17:19:00,
2013-03-11 12:24:00,37.0,33.5,29.63,South,180,7.6,7.6,87,0.00,OVC,,0.05,WeatherDisplay:10.37,2013-03-11 17:24:00,
2013-03-11 12:29:00,36.8,33.3,29.63,South,190,13.0,18.0,87,0.00,OVC,,0.05,WeatherDisplay:10.37,2013-03-11 17:29:00,
2013-03-11 12:34:00,36.5,33.0,29.63,South,190,6.0,8.0,87,0.00,OVC,,0.05,WeatherDisplay:10.37,2013-03-11 17:34:00,
2013-03-11 12:39:00,36.3,32.8,29.63,South,188,6.2,24.2,87,0.00,OVC,,0.05,WeatherDisplay:10.37,2013-03-11 17:39:00,
2013-03-11 12:44:00,36.5,33.0,29.63,WSW,256,6.1,9.2,87,0.00,OVC,,0.05,WeatherDisplay:10.37,2013-03-11 17:44:00,
2013-03-11 12:49:00,36.5,32.7,29.62,South,176,5.8,8.1,86,0.00,OVC,,0.05,WeatherDisplay:10.37,2013-03-11 17:49:00,
2013-03-11 12:54:00,36.5,32.7,29.62,SSW,202,5.0,15.0,86,0.00,OVC,,0.05,WeatherDisplay:10.37,2013-03-11 17:54:00,
2013-03-11 12:59:00,36.5,32.4,29.62,South,188,5.5,13.8,85,0.00,OVC,,0.05,WeatherDisplay:10.37,2013-03-11 17:59:00,
2013-03-11 13:04:00,36.5,32.4,29.62,SSE,166,8.0,17.0,85,0.00,OVC,,0.05,WeatherDisplay:10.37,2013-03-11 18:04:00,
2013-03-11 13:09:00,36.5,32.4,29.62,SE,138,3.0,9.2,85,0.00,OVC,,0.05,WeatherDisplay:10.37,2013-03-11 18:09:00,
2013-03-11 13:14:00,36.5,32.7,29.62,SW,215,8.0,15.0,86,0.00,OVC,,0.05,WeatherDisplay:10.37,2013-03-11 18:14:00,
2013-03-11 13:19:00,36.3,32.5,29.63,SSW,213,5.1,5.8,86,0.00,OVC,,0.05,WeatherDisplay:10.37,2013-03-11 18:19:00,
2013-03-11 13:24:00,36.2,32.4,29.63,SSW,211,1.9,3.5,86,0.00,OVC,,0.05,WeatherDisplay:10.37,2013-03-11 18:24:00,
2013-03-11 13:29:00,36.0,32.2,29.63,South,172,9.7,15.0,86,0.00,OVC,,0.05,WeatherDisplay:10.37,2013-03-11 18:29:00,
2013-03-11 13:34:00,35.9,32.1,29.63,West,267,5.3,8.1,86,0.00,OVC,,0.05,WeatherDisplay:10.37,2013-03-11 18:34:00,
2013-03-11 13:40:00,35.9,32.1,29.63,South,186,6.0,9.2,86,0.00,OVC,,0.05,WeatherDisplay:10.37,2013-03-11 18:40:00,
2013-03-11 13:45:00,35.9,32.4,29.63,SE,129,7.2,9.2,87,0.00,OVC,,0.05,WeatherDisplay:10.37,2013-03-11 18:45:00,
2013-03-11 13:50:00,35.8,32.3,29.63,SSE,160,7.5,13.5,87,0.00,OVC,,0.05,WeatherDisplay:10.37,2013-03-11 18:50:00,
2013-03-11 13:55:00,35.5,32.0,29.63,SSE,166,4.5,5.8,87,0.00,OVC,,0.05,WeatherDisplay:10.37,2013-03-11 18:55:00,
2013-03-11 14:00:00,35.3,31.8,29.63,WSW,256,5.2,9.2,87,0.00,OVC,,0.05,WeatherDisplay:10.37,2013-03-11 19:00:00,
2013-03-11 14:05:00,35.3,31.8,29.64,SSW,196,3.4,5.8,87,0.00,OVC,,0.05,WeatherDisplay:10.37,2013-03-11 19:05:00,
2013-03-11 14:10:00,35.3,31.8,29.64,SSW,200,5.5,8.1,87,0.00,OVC,,0.05,WeatherDisplay:10.37,2013-03-11 19:10:00,
2013-03-11 14:15:00,35.3,31.5,29.63,ESE,120,1.6,4.6,86,0.00,-DZ,,0.05,WeatherDisplay:10.37,2013-03-11 19:15:00,
2013-03-11 14:20:00,35.3,31.5,29.64,WSW,240,9.6,13.8,86,0.00,-DZ,,0.05,WeatherDisplay:10.37,2013-03-11 19:20:00,
2013-03-11 14:25:00,35.5,31.7,29.64,South,176,6.8,10.4,86,0.00,-DZ,,0.05,WeatherDisplay:10.37,2013-03-11 19:25:00,
2013-03-11 14:30:00,35.5,31.4,29.64,East,101,4.9,6.0,85,0.00,-DZ,,0.05,WeatherDisplay:10.37,2013-03-11 19:30:00,
2013-03-11 14:35:00,35.5,31.4,29.64,WSW,250,10.1,13.8,85,0.00,OVC,,0.05,WeatherDisplay:10.37,2013-03-11 19:35:00,
2013-03-11 14:40:00,35.3,31.2,29.64,SSE,147,6.8,9.0,85,0.00,OVC,,0.05,WeatherDisplay:10.37,2013-03-11 19:40:00,
2013-03-11 14:45:00,35.3,31.2,29.64,SW,226,4.2,5.8,85,0.00,OVC,,0.05,WeatherDisplay:10.37,2013-03-11 19:45:00,
2013-03-11 14:50:00,35.5,31.4,29.65,WSW,257,1.6,9.2,85,0.00,OVC,,0.05,WeatherDisplay:10.37,2013-03-11 19:50:00,
2013-03-11 14:55:00,35.5,31.4,29.64,SSW,196,11.1,15.0,85,0.00,OVC,,0.05,WeatherDisplay:10.37,2013-03-11 19:55:00,
2013-03-11 15:00:00,35.5,31.4,29.65,South,188,12.8,16.5,85,0.00,OVC,,0.05,WeatherDisplay:10.37,2013-03-11 20:00:00,
2013-03-11 15:05:00,35.3,31.2,29.65,WSW,252,5.2,9.2,85,0.00,OVC,,0.05,WeatherDisplay:10.37,2013-03-11 20:05:00,
2013-03-11 15:10:00,35.2,30.9,29.65,West,265,7.6,10.4,84,0.00,OVC,,0.05,WeatherDisplay:10.37,2013-03-11 20:10:00,
2013-03-11 15:15:00,35.2,31.1,29.65,WSW,241,6.3,9.2,85,0.00,OVC,,0.05,WeatherDisplay:10.37,2013-03-11 20:15:00,
2013-03-11 15:20:00,35.3,31.2,29.66,WSW,257,6.5,10.5,85,0.00,OVC,,0.05,WeatherDisplay:10.37,2013-03-11 20:20:00,
2013-03-11 15:25:00,35.2,30.9,29.66,South,187,7.5,7.5,84,0.00,OVC,,0.05,WeatherDisplay:10.37,2013-03-11 20:25:00,
2013-03-11 15:30:00,35.0,30.9,29.66,South,170,6.4,8.1,85,0.00,OVC,,0.05,WeatherDisplay:10.37,2013-03-11 20:30:00,
2013-03-11 15:35:00,35.0,30.9,29.66,WSW,241,2.7,10.5,85,0.00,OVC,,0.05,WeatherDisplay:10.37,2013-03-11 20:35:00,
2013-03-11 15:40:00,34.9,30.8,29.66,SSW,200,4.1,8.1,85,0.00,OVC,,0.05,WeatherDisplay:10.37,2013-03-11 20:40:00,
2013-03-11 15:45:00,34.9,30.8,29.66,SW,224,12.5,19.6,85,0.00,OVC,,0.05,WeatherDisplay:10.37,2013-03-11 20:45:00,
2013-03-11 15:50:00,34.9,30.8,29.67,SW,235,7.6,13.8,85,0.00,OVC,,0.05,WeatherDisplay:10.37,2013-03-11 20:50:00,
2013-03-11 15:55:00,34.9,30.8,29.67,SSE,150,6.9,8.1,85,0.00,OVC,,0.05,WeatherDisplay:10.37,2013-03-11 20:55:00,
2013-03-11 16:00:00,34.9,30.8,29.67,South,188,1.5,4.6,85,0.00,OVC,,0.05,WeatherDisplay:10.37,2013-03-11 21:00:00,
2013-03-11 16:05:00,35.0,30.9,29.67,SW,236,4.7,4.7,85,0.00,OVC,,0.05,WeatherDisplay:10.37,2013-03-11 21:05:00,
2013-03-11 16:10:00,35.0,30.9,29.68,South,180,2.8,4.6,85,0.00,OVC,,0.05,WeatherDisplay:10.37,2013-03-11 21:10:00,
2013-03-11 16:15:00,34.9,30.8,29.68,SSW,211,2.5,8.1,85,0.00,OVC,,0.05,WeatherDisplay:10.37,2013-03-11 21:15:00,
2013-03-11 16:20:00,34.9,31.1,29.67,South,175,3.4,9.2,86,0.00,OVC,,0.05,WeatherDisplay:10.37,2013-03-11 21:20:00,
2013-03-11 16:25:00,34.9,31.1,29.68,SSW,198,12.0,12.0,86,0.00,OVC,,0.05,WeatherDisplay:10.37,2013-03-11 21:25:00,
2013-03-11 16:30:00,34.9,31.1,29.68,SE,137,6.0,6.0,86,0.00,OVC,,0.05,WeatherDisplay:10.37,2013-03-11 21:30:00,
2013-03-11 16:35:00,34.7,30.7,29.68,SW,227,4.7,10.4,85,0.00,OVC,,0.05,WeatherDisplay:10.37,2013-03-11 21:35:00,
2013-03-11 16:40:00,34.7,30.9,29.68,WSW,238,9.8,9.8,86,0.00,OVC,,0.05,WeatherDisplay:10.37,2013-03-11 21:40:00,
2013-03-11 16:45:00,34.7,30.9,29.68,South,171,8.1,9.2,86,0.00,OVC,,0.05,WeatherDisplay:10.37,2013-03-11 21:45:00,
2013-03-11 16:50:00,34.7,30.9,29.68,SW,236,4.5,4.5,86,0.00,OVC,,0.05,WeatherDisplay:10.37,2013-03-11 21:50:00,
2013-03-11 16:55:00,34.7,30.9,29.68,SW,236,3.7,3.7,86,0.00,OVC,,0.05,WeatherDisplay:10.37,2013-03-11 21:55:00,
2013-03-11 17:00:00,34.7,30.9,29.69,WSW,240,3.4,9.2,86,0.00,OVC,,0.05,WeatherDisplay:10.37,2013-03-11 22:00:00,
2013-03-11 17:05:00,34.7,30.9,29.70,SW,234,13.8,20.7,86,0.00,OVC,,0.05,WeatherDisplay:10.37,2013-03-11 22:05:00,
2013-03-11 17:10:00,34.7,30.9,29.70,SW,217,5.3,15.0,86,0.00,OVC,,0.05,WeatherDisplay:10.37,2013-03-11 22:10:00,
2013-03-11 17:15:00,34.7,30.9,29.70,SW,233,9.0,9.0,86,0.00,OVC,,0.05,WeatherDisplay:10.37,2013-03-11 22:15:00,
2013-03-11 17:20:00,34.6,30.6,29.70,SW,223,7.3,16.1,85,0.00,OVC,,0.05,WeatherDisplay:10.37,2013-03-11 22:20:00,
2013-03-11 17:25:00,34.6,30.8,29.70,West,278,5.7,9.2,86,0.00,OVC,,0.05,WeatherDisplay:10.37,2013-03-11 22:25:00,
2013-03-11 17:30:00,34.6,30.8,29.70,WSW,243,10.8,10.8,86,0.00,OVC,,0.05,WeatherDisplay:10.37,2013-03-11 22:30:00,
2013-03-11 17:35:00,34.6,30.8,29.71,SW,221,4.8,8.1,86,0.00,OVC,,0.05,WeatherDisplay:10.37,2013-03-11 22:35:00,
2013-03-11 17:40:00,34.6,31.1,29.71,WNW,295,4.3,5.8,87,0.00,OVC,,0.05,WeatherDisplay:10.37,2013-03-11 22:40:00,
2013-03-11 17:45:00,34.4,30.9,29.71,South,175,7.2,9.2,87,0.00,OVC,,0.05,WeatherDisplay:10.37,2013-03-11 22:45:00,
2013-03-11 17:50:00,34.3,30.8,29.72,WSW,250,8.9,15.0,87,0.00,OVC,,0.05,WeatherDisplay:10.37,2013-03-11 22:50:00,
2013-03-11 17:55:00,34.1,30.9,29.72,WSW,243,2.1,5.8,88,0.00,OVC,,0.05,WeatherDisplay:10.37,2013-03-11 22:55:00,
2013-03-11 18:00:00,34.0,30.8,29.72,WSW,250,6.3,8.1,88,0.00,OVC,,0.05,WeatherDisplay:10.37,2013-03-11 23:00:00,
2013-03-11 18:05:00,34.0,30.8,29.73,South,183,5.7,9.2,88,0.00,OVC,,0.05,WeatherDisplay:10.37,2013-03-11 23:05:00,
2013-03-11 18:10:00,33.8,30.9,29.73,SW,215,8.2,18.0,89,0.00,-RA,,0.05,WeatherDisplay:10.37,2013-03-11 23:10:00,
2013-03-11 18:15:00,33.8,30.9,29.73,SW,235,12.9,16.1,89,0.00,-RA,,0.05,WeatherDisplay:10.37,2013-03-11 23:15:00,
2013-03-11 18:20:00,33.8,30.9,29.73,SSW,205,9.0,10.4,89,0.00,-RA,,0.05,WeatherDisplay:10.37,2013-03-11 23:20:00,
2013-03-11 18:25:00,33.8,30.9,29.74,SSW,196,6.1,9.2,89,0.00,-RA,,0.05,WeatherDisplay:10.37,2013-03-11 23:25:00,
2013-03-11 18:30:00,33.8,30.9,29.74,SSW,210,3.0,8.1,89,0.00,-RA,,0.05,WeatherDisplay:10.37,2013-03-11 23:30:00,
2013-03-11 18:35:00,33.8,30.9,29.75,West,265,3.4,10.5,89,0.00,-DZ,,0.05,WeatherDisplay:10.37,2013-03-11 23:35:00,
2013-03-11 18:40:00,33.8,30.9,29.75,West,269,4.2,5.8,89,0.00,-DZ,,0.05,WeatherDisplay:10.37,2013-03-11 23:40:00,
2013-03-11 18:45:00,33.7,30.8,29.75,SW,236,4.7,5.8,89,0.00,-DZ,,0.05,WeatherDisplay:10.37,2013-03-11 23:45:00,
2013-03-11 18:50:00,33.7,30.8,29.75,South,173,7.4,8.1,89,0.00,-DZ,,0.05,WeatherDisplay:10.37,2013-03-11 23:50:00,
2013-03-11 18:56:00,33.7,30.8,29.75,SSW,196,0.8,4.6,89,0.00,-DZ,,0.05,WeatherDisplay:10.37,2013-03-11 23:56:00,
2013-03-11 19:01:00,33.7,30.8,29.75,West,259,9.6,15.0,89,0.00,-DZ,,0.05,WeatherDisplay:10.37,2013-03-12 00:01:00,
2013-03-11 19:06:00,33.7,30.8,29.76,WSW,240,7.2,10.4,89,0.00,-DZ,,0.05,WeatherDisplay:10.37,2013-03-12 00:06:00,
2013-03-11 19:11:00,33.7,30.8,29.76,SW,229,5.6,8.1,89,0.00,-DZ,,0.05,WeatherDisplay:10.37,2013-03-12 00:11:00,
2013-03-11 19:16:00,33.5,30.6,29.76,SW,225,13.0,13.0,89,0.00,-RA,,0.05,WeatherDisplay:10.37,2013-03-12 00:16:00,
2013-03-11 19:21:00,33.5,30.3,29.76,South,187,8.6,8.6,88,0.00,-RA,,0.05,WeatherDisplay:10.37,2013-03-12 00:21:00,
2013-03-11 19:26:00,33.5,30.3,29.77,WSW,242,0.8,9.2,88,0.00,-RA,,0.05,WeatherDisplay:10.37,2013-03-12 00:26:00,
2013-03-11 19:31:00,33.5,30.3,29.77,SW,219,3.0,5.8,88,0.00,-DZ,,0.05,WeatherDisplay:10.37,2013-03-12 00:31:00,
2013-03-11 19:36:00,33.5,30.3,29.77,SW,232,1.6,13.8,88,0.00,-DZ,,0.05,WeatherDisplay:10.37,2013-03-12 00:36:00,
2013-03-11 19:41:00,33.4,30.2,29.77,WSW,249,4.4,9.2,88,0.00,-DZ,,0.05,WeatherDisplay:10.37,2013-03-12 00:41:00,
2013-03-11 19:46:00,33.4,30.2,29.78,SSW,211,5.9,9.2,88,0.00,-DZ,,0.05,WeatherDisplay:10.37,2013-03-12 00:46:00,
2013-03-11 19:51:00,33.2,30.3,29.78,SW,220,9.2,13.8,89,0.00,-DZ,,0.05,WeatherDisplay:10.37,2013-03-12 00:51:00,
2013-03-11 19:56:00,33.2,30.3,29.78,SW,229,7.4,8.1,89,0.00,-DZ,,0.05,WeatherDisplay:10.37,2013-03-12 00:56:00,
2013-03-11 20:01:00,33.1,30.2,29.79,WSW,237,8.3,18.0,89,0.00,-DZ,,0.05,WeatherDisplay:10.37,2013-03-12 01:01:00,
2013-03-11 20:06:00,33.1,30.2,29.79,West,267,5.3,5.8,89,0.01,-DZ,,0.06,WeatherDisplay:10.37,2013-03-12 01:06:00,
2013-03-11 20:11:00,33.1,30.2,29.79,SSW,196,1.9,4.6,89,0.01,RA,,0.06,WeatherDisplay:10.37,2013-03-12 01:11:00,
2013-03-11 20:16:00,33.1,30.2,29.80,SSW,211,13.1,15.0,89,0.01,OVC,,0.06,WeatherDisplay:10.37,2013-03-12 01:16:00,
2013-03-11 20:21:00,33.1,30.5,29.80,West,275,12.2,13.8,90,0.01,OVC,,0.06,WeatherDisplay:10.37,2013-03-12 01:21:00,
2013-03-11 20:26:00,33.1,30.5,29.80,West,266,5.7,13.8,90,0.01,OVC,,0.06,WeatherDisplay:10.37,2013-03-12 01:26:00,
2013-03-11 20:31:00,33.1,30.2,29.80,NW,325,5.4,13.8,89,0.01,OVC,,0.06,WeatherDisplay:10.37,2013-03-12 01:31:00,
2013-03-11 20:36:00,33.1,30.2,29.80,WSW,242,7.2,15.0,89,0.01,OVC,,0.06,WeatherDisplay:10.37,2013-03-12 01:36:00,
2013-03-11 20:42:00,33.1,29.9,29.80,WSW,257,7.9,13.8,88,0.01,OVC,,0.06,WeatherDisplay:10.37,2013-03-12 01:42:00,
2013-03-11 20:47:00,33.1,29.7,29.80,WSW,258,6.7,9.2,87,0.01,OVC,,0.06,WeatherDisplay:10.37,2013-03-12 01:47:00,
2013-03-11 20:52:00,33.1,29.7,29.81,SW,229,14.4,18.4,87,0.01,OVC,,0.06,WeatherDisplay:10.37,2013-03-12 01:52:00,
2013-03-11 20:57:00,33.2,29.5,29.81,WNW,288,12.9,24.2,86,0.01,OVC,,0.06,WeatherDisplay:10.37,2013-03-12 01:57:00,
2013-03-11 21:02:00,33.2,29.2,29.81,SSW,213,3.0,10.5,85,0.00,OVC,,0.06,WeatherDisplay:10.37,2013-03-12 02:02:00,
2013-03-11 21:07:00,33.2,29.2,29.81,South,171,2.2,4.6,85,0.00,OVC,,0.06,WeatherDisplay:10.37,2013-03-12 02:07:00,
2013-03-11 21:12:00,33.2,28.9,29.81,SW,220,17.0,17.0,84,0.00,OVC,,0.06,WeatherDisplay:10.37,2013-03-12 02:12:00,
2013-03-11 21:17:00,33.4,29.1,29.81,WNW,285,6.0,6.0,84,0.00,OVC,,0.06,WeatherDisplay:10.37,2013-03-12 02:17:00,
2013-03-11 21:22:00,33.4,29.1,29.82,WSW,252,3.5,5.8,84,0.00,OVC,,0.06,WeatherDisplay:10.37,2013-03-12 02:22:00,
2013-03-11 21:27:00,33.4,29.1,29.82,SW,225,2.2,8.1,84,0.00,OVC,,0.06,WeatherDisplay:10.37,2013-03-12 02:27:00,
2013-03-11 21:32:00,33.4,29.1,29.82,SW,221,6.0,6.0,84,0.00,OVC,,0.06,WeatherDisplay:10.37,2013-03-12 02:32:00,
2013-03-11 21:37:00,33.4,29.1,29.82,SW,217,6.3,8.1,84,0.00,OVC,,0.06,WeatherDisplay:10.37,2013-03-12 02:37:00,
2013-03-11 21:42:00,33.4,29.1,29.82,West,275,2.6,5.8,84,0.00,OVC,,0.06,WeatherDisplay:10.37,2013-03-12 02:42:00,
2013-03-11 21:47:00,33.4,29.1,29.82,SW,235,6.1,8.1,84,0.00,OVC,,0.06,WeatherDisplay:10.37,2013-03-12 02:47:00,
2013-03-11 21:52:00,33.4,28.8,29.83,WSW,255,9.0,9.0,83,0.00,OVC,,0.06,WeatherDisplay:10.37,2013-03-12 02:52:00,
2013-03-11 21:57:00,33.4,28.8,29.83,West,262,8.1,13.8,83,0.00,OVC,,0.06,WeatherDisplay:10.37,2013-03-12 02:57:00,
2013-03-11 22:02:00,33.4,28.8,29.83,WSW,250,12.9,12.9,83,0.00,OVC,,0.06,WeatherDisplay:10.37,2013-03-12 03:02:00,
2013-03-11 22:07:00,33.4,28.8,29.83,West,262,7.1,7.5,83,0.00,OVC,,0.06,WeatherDisplay:10.37,2013-03-12 03:07:00,
2013-03-11 22:12:00,33.4,28.5,29.83,SW,232,9.2,10.4,82,0.00,OVC,,0.06,WeatherDisplay:10.37,2013-03-12 03:12:00,
2013-03-11 22:17:00,33.4,28.5,29.83,WSW,238,2.1,9.2,82,0.00,OVC,,0.06,WeatherDisplay:10.37,2013-03-12 03:17:00,
2013-03-11 22:22:00,33.2,28.3,29.84,SW,225,12.5,13.8,82,0.00,OVC,,0.06,WeatherDisplay:10.37,2013-03-12 03:22:00,
2013-03-11 22:27:00,33.2,28.3,29.84,South,182,1.7,5.8,82,0.00,OVC,,0.06,WeatherDisplay:10.37,2013-03-12 03:27:00,
2013-03-11 22:32:00,33.2,28.3,29.84,WSW,240,9.2,15.0,82,0.00,OVC,,0.06,WeatherDisplay:10.37,2013-03-12 03:32:00,
2013-03-11 22:37:00,33.2,28.3,29.85,NW,324,7.3,15.0,82,0.00,OVC,,0.06,WeatherDisplay:10.37,2013-03-12 03:37:00,
2013-03-11 22:42:00,33.2,28.3,29.85,WSW,243,13.4,13.8,82,0.00,OVC,,0.06,WeatherDisplay:10.37,2013-03-12 03:42:00,
2013-03-11 22:47:00,33.2,28.3,29.85,WSW,248,7.3,13.8,82,0.00,OVC,,0.06,WeatherDisplay:10.37,2013-03-12 03:47:00,
2013-03-11 22:53:00,33.2,28.3,29.85,SW,229,10.9,10.9,82,0.00,OVC,,0.06,WeatherDisplay:10.37,2013-03-12 03:53:00,
2013-03-11 22:58:00,33.2,28.3,29.85,West,279,11.4,11.4,82,0.00,OVC,,0.06,WeatherDisplay:10.37,2013-03-12 03:58:00,
2013-03-11 23:00:00,33.2,28.3,29.85,SW,219,12.9,15.0,82,0.00,OVC,,0.06,WeatherDisplay:10.37,2013-03-12 04:00:00,
2013-03-11 23:05:00,33.1,28.2,29.85,WSW,254,10.0,15.0,82,0.00,OVC,,0.06,WeatherDisplay:10.37,2013-03-12 04:05:00,
2013-03-11 23:10:00,33.1,28.2,29.85,WSW,247,13.0,20.0,82,0.00,OVC,,0.06,WeatherDisplay:10.37,2013-03-12 04:10:00,
2013-03-11 23:15:00,33.1,27.9,29.85,WSW,248,6.0,17.0,81,0.00,OVC,,0.06,WeatherDisplay:10.37,2013-03-12 04:15:00,
2013-03-11 23:20:00,33.1,27.9,29.85,WSW,240,12.0,17.0,81,0.00,OVC,,0.06,WeatherDisplay:10.37,2013-03-12 04:20:00,
2013-03-11 23:25:00,33.1,27.9,29.85,WSW,246,2.8,3.5,81,0.00,OVC,,0.06,WeatherDisplay:10.37,2013-03-12 04:25:00,
2013-03-11 23:30:00,33.1,27.9,29.85,WSW,241,9.2,19.6,81,0.00,OVC,,0.06,WeatherDisplay:10.37,2013-03-12 04:30:00,
2013-03-11 23:35:00,33.1,27.9,29.86,WSW,244,11.0,13.8,81,0.00,OVC,,0.06,WeatherDisplay:10.37,2013-03-12 04:35:00,
2013-03-11 23:40:00,33.1,27.9,29.86,WSW,253,15.0,17.0,81,0.00,OVC,,0.06,WeatherDisplay:10.37,2013-03-12 04:40:00,
2013-03-11 23:45:00,33.1,27.9,29.86,WSW,247,13.0,20.0,81,0.00,OVC,,0.06,WeatherDisplay:10.37,2013-03-12 04:45:00,
2013-03-11 23:50:00,33.1,27.9,29.86,WSW,257,12.8,15.0,81,0.00,OVC,,0.06,WeatherDisplay:10.37,2013-03-12 04:50:00,
2013-03-11 23:55:00,33.1,27.9,29.86,SW,223,8.1,9.0,81,0.00,OVC,,0.06,WeatherDisplay:10.37,2013-03-12 04:55:00,